Home > Weather > Ulyanovsk > Past weeks

Flag for Russia Past Weather in Ulyanovsk, Russia — Yesterday and Last 2 Weeks

Now
59 °F

Partly sunny.


Feels Like: 56 °F
Forecast: 53 / 72 °F
Wind: 17 mph from Northwest

Location: Ulyanovsk Vostochny Airport

Current Time: Aug 29, 2016 at 9:48:49 AM

Latest Report: Aug 29, 2016 at 9:00 AM


Visibility: 5 mi

Pressure: 30.07 "Hg

Humidity: 68%

Dew Point: 48 °F

Location of UlyanovskLocation

Past Weather in Ulyanovsk — Graph

°F

Ulyanovsk Temperature Yesterday

Maximum temperature yesterday: 84 °F (at 3:00 PM)
Minimum temperature yesterday: 52 °F (at 3:00 AM)
Average temperature yesterday: 69 °F

High & Low Weather Summary for the Past Weeks

 TemperatureHumidityPressure
High97 °F (Aug 20, 3:00 PM)94% (Aug 16, 5:00 AM)30.30 "Hg (Aug 16, 5:00 AM)
Low52 °F (Aug 28, 3:00 AM)14% (Aug 25, 1:00 PM)29.77 "Hg (Aug 28, 5:00 PM)
Average75 °F58%30.07 "Hg
* Reported Aug 14 8:00 AM — Aug 29 8:00 AM, Ulyanovsk, Weather by CustomWeather, © 2016

Note: Actual official high and low records may vary slightly from our data, if they occured in-between our weather recording intervals... More about our weather records

Advertising

Ulyanovsk Weather History for the Previous 24 Hours

Scroll right to see more
 ConditionsComfort  
Time TempWeatherWind HumidityBarometerVisibility
8:00 AM
Mon, Aug 29
57 °FScattered clouds.15 mph72%30.04 "Hg5 mi
7:00 AM57 °FPassing clouds.15 mph72%30.04 "Hg5 mi
6:00 AM57 °FPassing clouds.15 mph67%30.01 "Hg5 mi
5:00 AM57 °FClear.15 mph67%29.98 "Hg5 mi
4:00 AM59 °FClear.17 mph59%29.98 "Hg5 mi
3:00 AM59 °FClear.17 mph59%29.95 "Hg5 mi
2:00 AM61 °FClear.13 mph55%29.95 "Hg5 mi
1:00 AM64 °FClear.15 mph56%29.92 "Hg5 mi
12:00 AM66 °FClear.17 mph52%29.89 "Hg5 mi
11:00 PM
Sun, Aug 28
66 °FClear.15 mph52%29.89 "Hg5 mi
10:00 PM70 °FClear.17 mph46%29.86 "Hg5 mi
9:00 PM73 °FClear.13 mph44%29.83 "Hg5 mi
8:00 PM75 °FPassing clouds.13 mph44%29.80 "Hg5 mi
7:00 PM77 °FScattered clouds.15 mph44%29.80 "Hg5 mi
6:00 PM81 °FScattered clouds.15 mph42%29.77 "Hg5 mi
5:00 PM82 °FPartly sunny.15 mph42%29.77 "Hg5 mi
4:00 PM84 °FPartly sunny.15 mph43%29.80 "Hg5 mi
3:00 PM84 °FPassing clouds.15 mph43%29.80 "Hg5 mi
2:00 PM82 °FPassing clouds.15 mph42%29.80 "Hg5 mi
1:00 PM81 °FPassing clouds.15 mph45%29.83 "Hg5 mi
12:00 PM81 °FPassing clouds.20 mph45%29.83 "Hg5 mi
11:00 AM77 °FPassing clouds.13 mph54%29.86 "Hg5 mi
10:00 AM73 °FPassing clouds.15 mph61%29.89 "Hg5 mi
9:00 AM70 °FClear.15 mph69%29.89 "Hg5 mi
Weather by CustomWeather, © 2016

See weather overviewHow to use our weather pages